Regional Weather Roundup
Issued by NWS

Home | Current Version | Previous Version | Text Only | Print | Product List | Glossary On
Versions: 1 2 3 4 5 6 7 8 9 10 11 12 13 14 15 16 17 18 19 20 21 22 23 24 25 26 27 28 29 30 31 32 33 34 35 36 37 38 39 40 41 42 43 44 45 46 47 48 49 50
000
ASUS43 KLMK 290610
RWRKY
KENTUCKY REGIONAL WEATHER ROUNDUP
NATIONAL WEATHER SERVICE LOUISVILLE KY
200 AM EDT TUE JUL 29 2014

NOTE "FAIR" INDICATES FEW OR NO CLOUDS BELOW 12,000 FEET
WITH NO SIGNIFICANT WEATHER AND/OR OBSTRUCTIONS TO VISIBILITY.

KYZ001>023-026-027-061>063-070>075-290700-
WESTERN AND SOUTH CENTRAL KENTUCKY

CITY           SKY/WX    TMP DP  RH WIND       PRES   REMARKS
PADUCAH        CLEAR     64  56  75 CALM      30.08S
HENDERSON      CLEAR     61  52  72 N5        30.08S
OWENSBORO      CLEAR     63  50  62 NE6       30.07F
HOPKINSVILLE   CLEAR     64  58  78 NW6       30.07S
BOWLING GREEN  CLEAR     65  55  70 VRB6      30.05S
GLASGOW        CLEAR     63  55  74 N6        30.04S
$$

KYZ024-025-028>034-038-045-046-053-290700-
NORTH CENTRAL KENTUCKY

CITY           SKY/WX    TMP DP  RH WIND       PRES   REMARKS
LOUISVILLE/SDF CLEAR     62  47  57 NW13      30.04F
LOUISVILLE/LOU CLEAR     62  48  60 NW5       30.05S
FORT KNOX      CLEAR     59  50  72 N3        30.04F
$$

KYZ035>037-039>044-047>052-055>060-089>105-290700-
NORTHEAST KENTUCKY

CITY           SKY/WX    TMP DP  RH WIND       PRES   REMARKS
LEXINGTON      CLEAR     59  53  80 NW5       30.03S
COVINGTON      CLEAR     56  49  77 NW7       30.02S
FRANKFORT      CLEAR     57  53  86 NW5       30.03S
$$

KYZ054-064>069-076>088-106>120-290700-
SOUTHEAST KENTUCKY

CITY           SKY/WX    TMP DP  RH WIND       PRES   REMARKS
JACKSON        CLOUDY    62  56  80 NW6       30.02R
LONDON         PTCLDY    63  57  81 CALM      30.03S
SOMERSET       CLEAR     61  61 100 CALM      30.04S
MIDDLESBORO    CLEAR     60  59  98 CALM      30.03S
MONTICELLO     MOCLDY    64  64 100 CALM      30.05S FOG
$$



USA.gov is the U.S. government's official web portal to all federal, state and local government web resources and services.